Weather History for Klamath Falls, OR

Change the Weather History Date:

Thursday, February 14, 2013

  Actual Average Record
Temperature  
Mean Temperature 39 °F 34 °F  
Max Temperature 53 °F 45 °F 61 °F (1996)
Min Temperature 24 °F 24 °F 1 °F (1989)
Degree Days  
Heating Degree Days 26 31  
Month to date heating degree days 436 449  
Since 1 July heating degree days 4233 4429  
Cooling Degree Days 0 0  
Month to date cooling degree days 0 0  
Year to date cooling degree days 0 0  
Moisture  
Dew Point 28 °F    
Average Humidity 78    
Maximum Humidity 92    
Minimum Humidity 41    
Precipitation  
Precipitation 0.00 in 0.07 in 0.67 in (1981)
Month to date precipitation 0.11 0.96  
Year to date precipitation 0.55 2.81  
Sea Level Pressure  
Sea Level Pressure 30.46 in    
Wind  
Wind Speed 3 mph (NNW)    
Max Wind Speed 12 mph    
Max Gust Speed 15 mph    
Visibility 10 miles    
Events      
T = Trace of Precipitation, MM = Missing Value Source: NWS Daily Summary

Daily Weather History Graph

Daily Weather History Graph

Search for Another Location

Airport:

Trip Planner

Search our weather history database for the weather conditions in past years. The results will help you decide how hot, cold, wet, or windy it might be!

Date:

Astronomy

Feb. 14, 2013 Rise Set
Actual Time 7:03 AM PST 5:38 PM PST
Civil Twilight 6:35 AM PST 6:07 PM PST
Nautical Twilight 6:02 AM PST 6:40 PM PST
Astronomical Twilight 5:29 AM PST 7:12 PM PST
Moon 9:02 AM PST (2/14) 10:53 PM PST (2/14)
Length of Visible Light 11h 32m
Length of Day
10h 34m
Waxing Crescent, 22% of the Moon is Illuminated
Feb 14
Waxing Crescent
Feb 17
First Quarter
Feb 25
Full
Mar 4
Last Quarter
Mar 11
New

Hourly Weather History & Observations

Time (PST) Temp. Windchill Dew Point Humidity Pressure Visibility Wind Dir Wind Speed Gust Speed Precip Events Conditions
12:53 AM 28.0 °F 24.2 °F 27.0 °F 96% 30.41 in 10.0 mi NW 3.5 mph - N/A   Clear
1:53 AM 27.0 °F - 25.0 °F 92% 30.41 in 10.0 mi Calm Calm - N/A   Clear
2:53 AM 28.9 °F 22.8 °F 27.0 °F 92% 30.41 in 10.0 mi NNW 5.8 mph - N/A   Clear
3:53 AM 28.0 °F - 26.1 °F 92% 30.41 in 10.0 mi Calm Calm - N/A   Clear
4:53 AM 27.0 °F 23.0 °F 25.0 °F 92% 30.44 in 10.0 mi NNW 3.5 mph - N/A   Clear
5:53 AM 27.0 °F 23.0 °F 25.0 °F 92% 30.46 in 10.0 mi NNW 3.5 mph - N/A   Clear
6:00 AM 28.4 °F - 24.8 °F 86% 30.42 in 10.0 mi Calm Calm - N/A   Partly Cloudy
6:53 AM 26.1 °F - 24.1 °F 92% 30.48 in 10.0 mi Calm Calm - N/A   Partly Cloudy
7:53 AM 27.0 °F - 25.0 °F 92% 30.50 in 10.0 mi Calm Calm - N/A   Partly Cloudy
8:53 AM 34.0 °F 31.0 °F 30.0 °F 85% 30.50 in 10.0 mi North 3.5 mph - N/A   Partly Cloudy
9:53 AM 39.0 °F 35.7 °F 30.9 °F 73% 30.50 in 10.0 mi NNE 4.6 mph - N/A   Partly Cloudy
10:53 AM 41.0 °F 39.0 °F 32.0 °F 70% 30.51 in 10.0 mi SW 3.5 mph - N/A   Partly Cloudy
11:53 AM 43.0 °F 41.3 °F 32.0 °F 65% 30.50 in 10.0 mi SW 3.5 mph - N/A   Partly Cloudy
12:53 PM 46.9 °F - 33.1 °F 59% 30.47 in 10.0 mi NW 5.8 mph - N/A   Partly Cloudy
1:53 PM 48.0 °F - 33.1 °F 56% 30.45 in 10.0 mi Calm Calm - N/A   Partly Cloudy
2:53 PM 52.0 °F - 32.0 °F 47% 30.42 in 10.0 mi NE 9.2 mph - N/A   Partly Cloudy
3:53 PM 52.0 °F - 28.9 °F 41% 30.42 in 10.0 mi East 4.6 mph - N/A   Partly Cloudy
4:53 PM 48.0 °F - 32.0 °F 54% 30.43 in 10.0 mi NNW 6.9 mph - N/A   Partly Cloudy
5:53 PM 41.0 °F 37.1 °F 30.0 °F 65% 30.45 in 10.0 mi West 5.8 mph - N/A   Partly Cloudy
6:53 PM 35.1 °F 31.0 °F 30.0 °F 82% 30.48 in 10.0 mi South 4.6 mph - N/A   Clear
7:53 PM 33.1 °F 30.0 °F 28.0 °F 82% 30.48 in 10.0 mi ENE 3.5 mph - N/A   Clear
8:53 PM 33.1 °F 30.0 °F 28.0 °F 82% 30.46 in 10.0 mi NE 3.5 mph - N/A   Clear
9:53 PM 30.9 °F - 26.1 °F 82% 30.47 in 10.0 mi Calm Calm - N/A   Clear
10:53 PM 30.9 °F 27.5 °F 27.0 °F 85% 30.47 in 10.0 mi NNW 3.5 mph - N/A   Clear
11:53 PM 30.0 °F - 26.1 °F 85% 30.47 in 10.0 mi Calm Calm - N/A   Clear